{"data":{"norad_id":68779,"epoch":"2026-05-23T15:14:45.269952Z","epoch_age_seconds":192671,"freshness":"STALE","line1":"1 68779U 26086P   26143.63524618  .00259712  00000+0  16805-2 0  9997","line2":"2 68779  97.2843 180.4367 0001204  12.0261 348.1033 15.75315605  5296","mean_motion":15.75315605,"eccentricity":0.0001204,"inclination_deg":97.2843,"raan_deg":180.4367,"arg_perigee_deg":12.0261,"mean_anomaly_deg":348.1033,"bstar":0.0016805,"rev_number":529,"period_min":91.410254264573,"perigee_km":342.92392748636,"apogee_km":344.54255384031,"semimajor_km":6721.8702406633,"source":"CELESTRAK","updated_at":"2026-05-25T13:38:22.036833Z"}}